Weather History for KPNS - November, 2012

Change the Weather History Date:

Thursday, November 15, 2012

  Actual Average Record
Temperature  
Mean Temperature 57 °F 61 °F  
Max Temperature 65 °F 71 °F 84 °F (1951)
Min Temperature 49 °F 51 °F 27 °F (1940)
Degree Days  
Heating Degree Days 8 5  
Month to date heating degree days 69 62  
Since 1 July heating degree days 98 100  
Cooling Degree Days 0 1  
Month to date cooling degree days 25 31  
Year to date cooling degree days 3029 2581  
Growing Degree Days 7 (Base 50)    
Moisture  
Dew Point 47 °F    
Average Humidity 69    
Maximum Humidity 86    
Minimum Humidity 52    
Precipitation  
Precipitation 0.00 in 0.16 in 2.10 in (1926)
Month to date precipitation 0.34 2.41  
Year to date precipitation 63.65 58.40  
Snow  
Snow 0.00 in 0.00 in 0.00 in (2002)
Month to date snowfall 0.0 0.0  
Since 1 July snowfall 0.0 0.0  
Snow Depth 0.00 in    
Sea Level Pressure  
Sea Level Pressure 30.22 in    
Wind  
Wind Speed 6 mph (NNE)    
Max Wind Speed 12 mph    
Max Gust Speed 20 mph    
Visibility 10 miles    
Events      
T = Trace of Precipitation, MM = Missing Value Source: NWS Daily Summary

Daily Weather History Graph

Daily Weather History Graph

Search for Another Location

Airport or City:

Trip Planner

Search our weather history database for the weather conditions in past years. The results will help you decide how hot, cold, wet, or windy it might be!

Date:

Astronomy

Nov. 15, 2012 Rise Set
Actual Time 6:15 AM CST 4:51 PM CST
Civil Twilight 5:49 AM CST 5:16 PM CST
Nautical Twilight 5:20 AM CST 5:46 PM CST
Astronomical Twilight 4:51 AM CST 6:14 PM CST
Moon 8:05 AM CST (11/15) 6:47 PM CST (11/15)
Length of Visible Light 11h 27m
Length of Day
10h 36m
Waxing Crescent, 5% of the Moon is Illuminated
Nov 15
Waxing Crescent
Nov 20
First Quarter
Nov 28
Full
Dec 6
Last Quarter
Dec 13
New

Hourly Weather History & Observations

Time (CST) Temp. Dew Point Humidity Pressure Visibility Wind Dir Wind Speed Gust Speed Precip Events Conditions
12:26 AM 55.4 °F 51.8 °F 88% 30.20 in 10.0 mi North 4.6 mph - N/A   Overcast
12:53 AM 55.9 °F 51.1 °F 84% 30.21 in 10.0 mi ENE 5.8 mph - N/A   Overcast
1:53 AM 55.9 °F 51.1 °F 84% 30.20 in 10.0 mi NE 3.5 mph - N/A   Overcast
2:53 AM 55.9 °F 50.0 °F 80% 30.19 in 10.0 mi NNE 4.6 mph - N/A   Overcast
3:53 AM 55.0 °F 48.9 °F 80% 30.19 in 10.0 mi North 5.8 mph - N/A   Overcast
4:53 AM 55.0 °F 48.9 °F 80% 30.21 in 10.0 mi Variable 4.6 mph - N/A   Overcast
5:53 AM 54.0 °F 48.9 °F 83% 30.22 in 10.0 mi NNE 5.8 mph - N/A   Overcast
6:53 AM 54.0 °F 48.0 °F 80% 30.23 in 10.0 mi NE 9.2 mph - N/A   Overcast
7:43 AM 55.4 °F 46.4 °F 72% 30.23 in 10.0 mi NNE 8.1 mph - N/A   Overcast
7:53 AM 55.0 °F 46.9 °F 74% 30.25 in 10.0 mi NNE 4.6 mph - N/A   Overcast
8:53 AM 55.0 °F 48.0 °F 77% 30.25 in 10.0 mi NNE 9.2 mph 16.1 mph N/A   Overcast
9:53 AM 55.0 °F 48.0 °F 77% 30.26 in 10.0 mi North 8.1 mph - N/A   Overcast
10:53 AM 57.9 °F 48.0 °F 70% 30.24 in 10.0 mi Variable 4.6 mph - N/A   Overcast
11:53 AM 60.1 °F 46.9 °F 62% 30.23 in 10.0 mi NNW 5.8 mph - N/A   Overcast
12:36 PM 62.6 °F 46.4 °F 55% 30.20 in 10.0 mi North 9.2 mph - N/A   Scattered Clouds
12:53 PM 63.0 °F 46.0 °F 54% 30.20 in 10.0 mi North 10.4 mph - N/A   Partly Cloudy
1:53 PM 64.0 °F 46.0 °F 52% 30.20 in 10.0 mi North 5.8 mph - N/A   Clear
2:53 PM 64.0 °F 46.0 °F 52% 30.18 in 10.0 mi NNE 9.2 mph - N/A   Clear
3:53 PM 61.0 °F 46.9 °F 60% 30.19 in 10.0 mi NE 8.1 mph - N/A   Clear
4:53 PM 55.9 °F 46.0 °F 69% 30.21 in 10.0 mi NE 6.9 mph - N/A   Clear
5:53 PM 53.1 °F 45.0 °F 74% 30.23 in 10.0 mi NE 8.1 mph - N/A   Clear
6:53 PM 52.0 °F 45.0 °F 77% 30.24 in 10.0 mi NE 4.6 mph - N/A   Clear
7:53 PM 51.1 °F 44.1 °F 77% 30.25 in 10.0 mi Calm Calm - N/A   Clear
8:53 PM 50.0 °F 44.1 °F 80% 30.25 in 10.0 mi NE 3.5 mph - N/A   Clear
9:53 PM 50.0 °F 44.1 °F 80% 30.26 in 10.0 mi NNE 3.5 mph - N/A   Clear
10:53 PM 50.0 °F 44.1 °F 80% 30.25 in 10.0 mi NNE 3.5 mph - N/A   Clear
11:53 PM 48.9 °F 44.1 °F 83% 30.25 in 10.0 mi NE 3.5 mph - N/A   Clear